When you browse on this site, cookies collect data to enhance your experience and personalize the content and advertising you see.
Visit our Privacy Policy to learn more. By continuing to use the site, you agree to this use of cookies and data.
  • en Suisse
  • Liste des pays
  • À 7 jours
  • Température de l'eau
  • Carte météo
  • Widgets météo
  • user-avatar
    Se connecter

    Météo par heure à Lyon

    Ce jour, 15 Novembre, Vendredi

    Heure Température Précipitation Vent Pression Humidité
    00:00 +2°C° 0 mm 2 m/s 731 mmHg 99%
    01:00 +2°C° 1.4 mm 2 m/s 731 mmHg 99%
    02:00 +2°C° 1.4 mm 2 m/s 731 mmHg 99%
    03:00 +2°C° 1.4 mm 2 m/s 732 mmHg 98%
    04:00 +2°C° 0.2 mm 2 m/s 732 mmHg 98%
    05:00 +2°C° 0.2 mm 2 m/s 733 mmHg 98%
    06:00 +2°C° 0 mm 2 m/s 734 mmHg 98%
    07:00 +3°C° 0 mm 2 m/s 734 mmHg 97%
    08:00 +3°C° 0 mm 2 m/s 735 mmHg 96%
    09:00 +4°C° 0 mm 1 m/s 735 mmHg 95%
    10:00 +4°C° 0 mm 1 m/s 735 mmHg 94%
    11:00 +5°C° 0 mm 1 m/s 735 mmHg 92%
    12:00 +5°C° 0 mm 1 m/s 735 mmHg 91%
    13:00 +5°C° 0 mm 1 m/s 735 mmHg 92%
    14:00 +5°C° 0 mm 1 m/s 735 mmHg 93%
    15:00 +5°C° 0 mm 1 m/s 735 mmHg 94%
    16:00 +4°C° 0 mm 1 m/s 735 mmHg 94%
    17:00 +4°C° 0 mm 1 m/s 736 mmHg 94%
    18:00 +3°C° 0 mm 0 m/s 736 mmHg 94%
    19:00 +2°C° 0 mm 0 m/s 737 mmHg 94%
    20:00 +2°C° 0 mm 0 m/s 737 mmHg 94%
    21:00 +2°C° 0 mm 0 m/s 737 mmHg 94%
    22:00 +3°C° 0 mm 1 m/s 738 mmHg 94%
    23:00 +3°C° 0 mm 1 m/s 738 mmHg 94%

    Demain, 16 Novembre, Samedi

    Heure Température Précipitation Vent Pression Humidité
    00:00 +3°C° 0 mm 1 m/s 738 mmHg 94%
    01:00 +3°C° 0 mm 1 m/s 739 mmHg 93%
    02:00 +3°C° 0 mm 1 m/s 739 mmHg 93%
    03:00 +3°C° 0 mm 1 m/s 739 mmHg 92%
    04:00 +3°C° 0 mm 1 m/s 739 mmHg 92%
    05:00 +2°C° 0 mm 1 m/s 740 mmHg 91%
    06:00 +1°C° 0 mm 2 m/s 740 mmHg 91%
    07:00 +2°C° 0 mm 2 m/s 740 mmHg 91%
    08:00 +3°C° 0 mm 2 m/s 741 mmHg 90%
    09:00 +3°C° 0 mm 2 m/s 741 mmHg 90%
    10:00 +4°C° 0 mm 2 m/s 741 mmHg 89%
    11:00 +5°C° 0 mm 2 m/s 741 mmHg 88%
    12:00 +5°C° 0 mm 2 m/s 741 mmHg 87%
    13:00 +5°C° 0 mm 2 m/s 741 mmHg 89%
    14:00 +5°C° 0 mm 2 m/s 741 mmHg 91%
    15:00 +4°C° 0 mm 2 m/s 741 mmHg 94%
    16:00 +4°C° 0 mm 2 m/s 741 mmHg 94%
    17:00 +3°C° 0 mm 2 m/s 742 mmHg 95%
    18:00 +4°C° 0 mm 1 m/s 742 mmHg 96%
    19:00 +4°C° 0 mm 1 m/s 743 mmHg 96%
    20:00 +4°C° 0 mm 1 m/s 743 mmHg 95%
    21:00 +4°C° 0 mm 1 m/s 743 mmHg 95%
    22:00 +2°C° 0 mm 0 m/s 743 mmHg 94%
    23:00 +2°C° 0 mm 0 m/s 742 mmHg 94%

    Après-demain, 17 Novembre, Dimanche

    Heure Température Précipitation Vent Pression Humidité
    00:00 +2°C° 0 mm 0 m/s 742 mmHg 93%
    01:00 +2°C° 0 mm 0 m/s 741 mmHg 93%
    02:00 +3°C° 0 mm 1 m/s 741 mmHg 93%
    03:00 +2°C° 0 mm 1 m/s 740 mmHg 93%
    04:00 +1°C° 0 mm 2 m/s 740 mmHg 93%
    05:00 +1°C° 0 mm 2 m/s 739 mmHg 92%
    06:00 +1°C° 0 mm 2 m/s 739 mmHg 92%
    07:00 +1°C° 0 mm 3 m/s 739 mmHg 91%
    08:00 +2°C° 0 mm 3 m/s 738 mmHg 90%
    09:00 +2°C° 0 mm 3 m/s 738 mmHg 89%
    10:00 +3°C° 0.3 mm 4 m/s 738 mmHg 88%
    11:00 +3°C° 0.3 mm 4 m/s 737 mmHg 87%
    12:00 +4°C° 0.3 mm 4 m/s 737 mmHg 87%
    13:00 +4°C° 0.7 mm 4 m/s 737 mmHg 89%
    14:00 +4°C° 0.7 mm 3 m/s 737 mmHg 91%
    15:00 +3°C° 0.7 mm 3 m/s 738 mmHg 93%
    16:00 +3°C° 0.6 mm 3 m/s 738 mmHg 94%
    17:00 +3°C° 0.6 mm 3 m/s 739 mmHg 94%
    18:00 +3°C° 0.6 mm 3 m/s 739 mmHg 95%
    19:00 +4°C° 0.1 mm 2 m/s 739 mmHg 95%
    20:00 +4°C° 0.1 mm 2 m/s 740 mmHg 95%
    21:00 +4°C° 0.1 mm 2 m/s 740 mmHg 95%
    22:00 +4°C° 0.2 mm 2 m/s 740 mmHg 94%
    23:00 +4°C° 0.2 mm 2 m/s 741 mmHg 94%

    18 Novembre, Lundi

    Heure Température Précipitation Vent Pression Humidité
    00:00 +4°C° 0.2 mm 2 m/s 741 mmHg 94%
    01:00 +4°C° 0.2 mm 2 m/s 741 mmHg 93%
    02:00 +5°C° 0.2 mm 1 m/s 741 mmHg 92%
    03:00 +5°C° 0.2 mm 1 m/s 741 mmHg 92%
    04:00 +4°C° 0 mm 1 m/s 741 mmHg 92%
    05:00 +4°C° 0 mm 1 m/s 742 mmHg 92%
    06:00 +4°C° 0 mm 1 m/s 742 mmHg 92%
    07:00 +4°C° 0 mm 1 m/s 742 mmHg 91%
    08:00 +5°C° 0 mm 1 m/s 742 mmHg 89%
    09:00 +5°C° 0 mm 1 m/s 743 mmHg 87%
    10:00 +6°C° 0 mm 1 m/s 743 mmHg 85%
    11:00 +5°C° 0 mm 0 m/s 743 mmHg 82%
    12:00 +6°C° 0 mm 0 m/s 743 mmHg 79%
    13:00 +6°C° 0 mm 0 m/s 743 mmHg 79%
    14:00 +6°C° 0 mm 0 m/s 743 mmHg 79%
    15:00 +6°C° 0 mm 0 m/s 743 mmHg 79%
    16:00 +5°C° 0 mm 0 m/s 743 mmHg 81%
    17:00 +4°C° 0 mm 0 m/s 744 mmHg 82%
    18:00 +3°C° 0 mm 0 m/s 744 mmHg 84%
    19:00 +3°C° 0 mm 0 m/s 744 mmHg 85%
    20:00 +3°C° 0 mm 1 m/s 744 mmHg 86%
    21:00 +3°C° 0 mm 1 m/s 745 mmHg 88%
    22:00 +3°C° 0 mm 1 m/s 745 mmHg 88%
    23:00 +3°C° 0 mm 1 m/s 745 mmHg 88%

    19 Novembre, Mardi

    Heure Température Précipitation Vent Pression Humidité
    00:00 +2°C° 0 mm 1 m/s 745 mmHg 88%
    01:00 +2°C° 0 mm 1 m/s 745 mmHg 89%
    02:00 +1°C° 0 mm 0 m/s 745 mmHg 89%
    03:00 +1°C° 0 mm 0 m/s 745 mmHg 89%
    04:00 +1°C° 0 mm 0 m/s 745 mmHg 89%
    05:00 +2°C° 0 mm 1 m/s 745 mmHg 89%
    06:00 +2°C° 0 mm 1 m/s 745 mmHg 89%
    07:00 +3°C° 0 mm 1 m/s 745 mmHg 86%
    08:00 +4°C° 0 mm 1 m/s 745 mmHg 83%
    09:00 +5°C° 0 mm 1 m/s 745 mmHg 80%
    10:00 +6°C° 0 mm 1 m/s 744 mmHg 77%
    11:00 +7°C° 0 mm 1 m/s 744 mmHg 74%
    12:00 +8°C° 0 mm 1 m/s 743 mmHg 71%
    13:00 +7°C° 0 mm 1 m/s 743 mmHg 73%
    14:00 +7°C° 0 mm 1 m/s 743 mmHg 75%
    15:00 +7°C° 0 mm 1 m/s 743 mmHg 78%
    16:00 +6°C° 0 mm 1 m/s 743 mmHg 81%
    17:00 +5°C° 0 mm 1 m/s 743 mmHg 84%
    18:00 +3°C° 0 mm 1 m/s 744 mmHg 87%
    19:00 +3°C° 0 mm 1 m/s 744 mmHg 88%
    20:00 +3°C° 0 mm 1 m/s 744 mmHg 88%
    21:00 +3°C° 0 mm 1 m/s 744 mmHg 89%
    22:00 +2°C° 0 mm 1 m/s 744 mmHg 89%
    23:00 +2°C° 0 mm 1 m/s 744 mmHg 88%

    20 Novembre, Mercredi

    Heure Température Précipitation Vent Pression Humidité
    00:00 +2°C° 0 mm 1 m/s 744 mmHg 88%
    01:00 +2°C° 0 mm 1 m/s 744 mmHg 88%
    02:00 +2°C° 0 mm 1 m/s 744 mmHg 88%
    03:00 +1°C° 0 mm 2 m/s 744 mmHg 88%
    04:00 +1°C° 0 mm 2 m/s 744 mmHg 86%
    05:00 +1°C° 0 mm 2 m/s 744 mmHg 85%
    06:00 +1°C° 0 mm 2 m/s 744 mmHg 84%
    07:00 +2°C° 0 mm 2 m/s 744 mmHg 81%
    08:00 +3°C° 0 mm 2 m/s 744 mmHg 78%
    09:00 +4°C° 0 mm 2 m/s 743 mmHg 74%
    10:00 +5°C° 0 mm 2 m/s 743 mmHg 73%
    11:00 +6°C° 0 mm 2 m/s 743 mmHg 73%
    12:00 +7°C° 0 mm 2 m/s 743 mmHg 72%
    13:00 +7°C° 0.1 mm 2 m/s 742 mmHg 74%
    14:00 +7°C° 0.1 mm 1 m/s 742 mmHg 76%
    15:00 +7°C° 0.1 mm 1 m/s 741 mmHg 78%
    16:00 +7°C° 0 mm 1 m/s 741 mmHg 79%
    17:00 +6°C° 0 mm 1 m/s 741 mmHg 80%
    18:00 +6°C° 0 mm 1 m/s 741 mmHg 80%
    19:00 +6°C° 0.1 mm 1 m/s 741 mmHg 81%
    20:00 +6°C° 0.1 mm 1 m/s 741 mmHg 82%
    21:00 +6°C° 0.1 mm 1 m/s 741 mmHg 83%
    22:00 +6°C° 0 mm 1 m/s 741 mmHg 84%
    23:00 +6°C° 0 mm 1 m/s 740 mmHg 84%
    Voir plus